Flag for Brazil Weather past 2 weeks in Campinas, São Paulo, Brazil

Now
81 °F

Sunny.


Feels Like: 81 °F
Forecast: 66 / 87 °F
Wind: 7 mph from Northwest

Location: Campinas Aeroporto

Current Time: Sep 19, 2014 at 3:02:19 PM

Latest Report: Sep 19, 2014 at 2:00 PM


Visibility: 10 mi

Pressure: 29.95 "Hg

Humidity: 42%

Dew point: 55 °F

Location of CampinasLocation

Historic Weather in Campinas — Graph

°F

Campinas temperature yesterday

Maximum temperature yesterday: 88 °F (at 3:00 PM)
Minimum temperature yesterday: 59 °F (at 6:00 AM)
Average temperature yesterday: 72 °F

Past Weeks' High & Low Weather Summary

 TemperatureHumidityPressure
High91 °F (Sep 11, 2:00 PM)88% (Sep 6, 4:00 AM)30.27 "Hg (Sep 6, 4:00 AM)
Low52 °F (Sep 6, 7:00 AM)12% (Sep 12, 3:00 PM)29.92 "Hg (Sep 19, 2:00 AM)
Average72 °F51%30.09 "Hg
* Reported Sep 4 2:00 PM — Sep 19 2:00 PM, Campinas, Weather by CustomWeather, © 2014

Note: Actual official high and low records may vary slightly from our data, if they occured in-between our weather recording intervals... More about our weather records

Advertising

Campinas weather history for previous 24 hours

 ConditionsComfort  
Time TempWeatherWind HumidityBarometerVisibility
2:00 PM
Sep 19
81 °FSunny.7 mph42%29.95 "Hg10 mi
1:00 PM81 °FSunny.8 mph42%29.95 "Hg10 mi
12:00 PM81 °FSunny.7 mph48%29.98 "Hg10 mi
11:00 AM77 °FClear.6 mph54%30.01 "Hg5 mi
10:00 AM73 °FClear.8 mph65%30.01 "Hg5 mi
9:00 AM70 °FPartly sunny.14 mph73%30.01 "HgN/A
8:00 AM68 °FPartly sunny.17 mph78%30.01 "HgN/A
7:00 AM66 °FSunny.14 mph83%29.98 "Hg10 mi
6:00 AM64 °FFog.8 mph83%29.98 "Hg3 mi
5:00 AM66 °FClear.9 mph83%29.98 "Hg5 mi
4:00 AM68 °FClear.6 mph78%29.95 "Hg4 mi
3:00 AM66 °FFog.8 mph83%29.92 "Hg3 mi
2:00 AM66 °FFog.10 mph83%29.92 "Hg3 mi
1:00 AM68 °FClear.14 mph78%29.95 "Hg4 mi
12:00 AM68 °FClear.16 mph78%29.95 "Hg4 mi
11:00 PM
Sep 18
68 °FClear.18 mph78%29.95 "Hg4 mi
10:00 PM72 °FClear.18 mph69%29.98 "Hg4 mi
9:00 PM73 °FClear.16 mph65%29.98 "Hg4 mi
8:00 PM75 °FClear.14 mph61%29.98 "Hg4 mi
7:00 PM77 °FClear.12 mph54%29.95 "Hg5 mi
6:00 PM84 °FClear.6 mph33%29.95 "Hg6 mi
5:00 PM86 °FSunny.7 mph29%29.95 "Hg10 mi
4:00 PM86 °FSunny.7 mph27%29.95 "Hg10 mi
3:00 PM88 °FSunny.7 mph27%29.98 "Hg10 mi
Weather by CustomWeather, © 2014

See weather overviewHow to use our weather pages